SASASAZM

Guest
Details From SASA - Salta
To SAZM - Mar Del Plata Brig Gen D Bartolome
Flight Number -
Tags Generated
Created
Modified
Stats Distance 883 nm / 1,635 km
Max Altitude 0 ft / 0 m
Waypoints 4
Social Downloads 2
Likes 0
Share VATSIM

Download

Looking for another format? Having issues loading an existing format? Contact us
Advertisement - Login to hide

Notes

Generated

Route

SASA ASADA R1339 SAZM

ID Type Via Altitude Latitude Longitude Leg Dist Tot Dist Heading (true) Name
O SASA APT - 0 ft / 0 m -24.85809˚ -65.48957˚ - 0 nm - -
ASADA FIX - 0 ft / 0 m -35.02583˚ -59.62583˚ 682 nm 682 nm 155° / 152° -
R1339 FIX - 0 ft / 0 m -37.92886˚ -57.58393˚ 200 nm 882 nm 151° / 150° -
O SAZM APT - 0 ft / 0 m -37.92886˚ -57.58393˚ 0 nm 882 nm 0° / 180° -

Altitude Profile

Advertisement - Login to hide

Weather


0- 5 10 15 20 25 30 35+ Temperature / ° C

Clouds and Precipitation
Forecast for 2018-05-21 12:00 UTC. Updated 3 hours ago

Ground ~20,000 ft ~40,000 ft Winds

SASA

Details ICAO SASA (SLA)
Name SALTA
Region Argentina
Timezone America/Argentina/Salta (UTC-3.0)
Stats Elevation 4,088 ft / 1,246 m (AMSL)
Location -24.855532° -65.483616°
Runways 2
Magnetic Variation 7.527° W

METAR

SASA 211300Z 05002KT 9999 FEW010 BKN022 12/10 Q1020

Decode

TAF

TAF SASA 211100Z 2112/2212 34005KT 8000 SCT008 BKN020 TX21/2118Z TN08/2210Z BECMG 2113/2115 09010KT 9999 FEW015 SCT020 BECMG 2203/2206 VRB03KT 8000 SCT010

Decode

Departure Runways

ID Width Length Bearing (true) Bearing (mag) Surface Threshold Offset Overrun Length
02 148 ft / 45 m 9,844 ft / 3,001 m 11.23° 18.76° Asphalt 0 ft / 0 m 95 ft / 29 m
06 98 ft / 30 m 7,876 ft / 2,401 m 52.08° 59.61° Asphalt 0 ft / 0 m 0 ft / 0 m
20 148 ft / 45 m 9,844 ft / 3,001 m 191.23° 198.76° Asphalt 0 ft / 0 m 95 ft / 29 m
24 98 ft / 30 m 7,876 ft / 2,401 m 232.07° 239.60° Asphalt 0 ft / 0 m 0 ft / 0 m

SAZM

Details ICAO SAZM (MDQ)
Name Mar Del Plata Brig Gen D Bartolome
Region Argentina
Timezone America/Argentina/Buenos_Aires (UTC-3.0)
Stats Elevation 71 ft / 22 m (AMSL)
Location -37.934190° -57.573395°
Runways 1
Magnetic Variation 7.644° W

METAR

SAZM 211300Z 27008KT 9999 FEW035TCU 12/09 Q1014

Decode

TAF

TAF SAZM 211100Z 2112/2212 25015KT 9999 SCT035 TX15/2118Z TN06/2210Z PROB40 TEMPO 2117/2121 5000 SHRA SCT015 FEW050TCU OVC050 BECMG 2122/2124 25010KT 9999 FEW015 SCT045

Decode

Destination Runways

ID Width Length Bearing (true) Bearing (mag) Surface Threshold Offset Overrun Length
13 197 ft / 60 m 7,204 ft / 2,196 m 122.66° 130.30° Asphalt 0 ft / 0 m 196 ft / 60 m
31 197 ft / 60 m 7,204 ft / 2,196 m 302.65° 310.29° Asphalt 0 ft / 0 m 0 ft / 0 m

Approach Navaids

Runway Type Ident Frequency Range Bearing (true) Bearing (mag) Slope Elevation
13 Localiser MP 109.50 MHz 18 nm / 33 km 122.49° 130.13° - 71 ft / 22 m (AMSL)
13 Glidescope MP 109.50 MHz 10 nm / 19 km 122.66° 130.30° 3.00° 71 ft / 22 m (AMSL)
13 DME MP 109.50 MHz 18 nm / 33 km - - - 70 ft / 21 m (AMSL)

Popular Alternatives